CW5376 Weather Reports


time (UTC)temp
F
wind
direction
speed
knots
gust
knots
rain 1hr
in
rain 24hr
in
rain mn
in
humidity
%
barometer
mb
20260506003002 57 247 4.3 6.1 0.00 0.03 0.03 54 1010.7
20260506001501 58 207 2.6 4.3 0.00 0.03 0.03 53 1010.5
20260506000003 58 224 3.5 6.1 0.00 0.03 0.03 54 1010.7
20260505234500 59 255 4.3 7.0 0.00 0.03 0.03 54 1010.7
20260505233000 58 348 4.3 8.7 0.00 0.03 0.03 55 1010.7
20260505231501 58 275 7.0 11.3 0.00 0.03 0.03 56 1011.1
20260505230000 58 261 2.6 7.8 0.00 0.03 0.03 57 1010.9
20260505224459 55 293 1.7 5.2 0.00 0.03 0.03 69 1011.1
20260505222959 53 250 3.5 7.0 0.00 0.03 0.03 73 1011.3
20260505221459 53 258 8.7 14.8 0.00 0.03 0.03 75 1011.9
20260505220002 55 262 12.2 18.2 0.00 0.03 0.03 65 1011.9
20260505213001 58 236 7.0 11.3 0.00 0.03 0.03 57 1011.8
20260505211501 59 18 7.0 13.0 0.00 0.03 0.03 53 1011.8
20260505204500 58 22 5.2 13.0 0.00 0.03 0.03 57 1011.9
20260505201459 57 21 7.0 11.3 0.00 0.03 0.03 60 1012.4
20260505200001 55 22 6.1 10.4 0.01 0.03 0.03 64 1012.2
20260505194501 54 21 7.0 12.2 0.02 0.03 0.03 69 1012.5
20260505191501 53 19 6.1 8.7 0.02 0.03 0.03 79 1012.6
20260505190000 53 18 8.7 13.0 0.01 0.02 0.02 74 1013.0
20260505183000 58 234 6.1 9.6 0.00 0.01 0.01 54 1012.5
20260505181459 59 284 6.1 10.4 0.00 0.01 0.01 53 1012.6
20260505174500 59 269 2.6 8.7 0.00 0.01 0.01 51 1012.8
20260505173001 58 244 1.7 6.1 0.00 0.01 0.01 54 1012.8
20260505171500 56 73 2.6 7.0 0.00 0.01 0.01 57 1012.8
20260505170001 55 251 3.5 7.0 0.00 0.01 0.01 58 1013.1
20260505164459 54 271 5.2 8.7 0.00 0.01 0.01 62 1013.0
20260505161459 52 300 4.3 7.8 0.00 0.01 0.01 64 1013.3
20260505152958 52 338 4.3 10.4 0.01 0.01 0.01 65 1013.7
20260505151458 51 264 4.3 9.6 0.01 0.01 0.01 68 1013.6
20260505124458 56 312 3.5 7.8 0.00 0.00 0.00 45 1012.6
20260505122958 56 268 2.6 5.2 0.00 0.00 0.00 46 1012.8
20260505121459 56 267 2.6 5.2 0.00 0.00 0.00 45 1013.1
20260505120001 56 254 4.3 5.2 0.00 0.00 0.00 44 1012.7
20260505114458 56 225 3.5 4.3 0.00 0.00 0.00 42 1012.6
20260505112958 56 219 4.3 6.1 0.00 0.00 0.00 41 1012.6
20260505111459 56 239 4.3 7.0 0.00 0.00 0.00 40 1012.5
20260505101458 57 257 7.8 13.0 0.00 0.00 0.00 35 1012.5
20260505100000 57 229 7.0 10.4 0.00 0.00 0.00 35 1012.5
20260505094458 57 244 6.1 8.7 0.00 0.00 0.00 35 1012.5
20260505092959 57 238 6.1 9.6 0.00 0.00 0.00 34 1012.5
20260505091458 58 227 6.1 9.6 0.00 0.00 0.00 34 1012.5
20260505085959 59 245 7.8 11.3 0.00 0.00 0.00 33 1013.1
20260505084458 59 255 7.8 13.0 0.00 0.00 0.00 32 1013.2
20260505082959 59 273 7.8 13.9 0.00 0.00 0.00 32 1013.6
20260505081458 60 262 8.7 13.0 0.00 0.00 0.00 32 1013.2
20260505080000 60 243 10.4 16.5 0.00 0.00 0.00 32 1013.2
20260505072959 61 240 8.7 13.9 0.00 0.00 0.00 32 1013.2
20260505071459 61 262 7.8 13.0 0.00 0.00 0.00 31 1013.2
20260505070002 61 244 7.8 13.0 0.00 0.00 0.00 30 1013.1
20260505064500 61 258 7.8 10.4 0.00 0.00 0.00 29 1013.1
20260505063001 62 216 9.6 17.4 0.00 0.00 0.00 28 1012.7
20260505061501 63 250 9.6 14.8 0.00 0.00 0.00 27 1013.1
20260505060006 63 261 10.4 14.8 0.00 0.00 0.00 26 1013.1
20260505054502 64 252 10.4 15.6 0.00 0.00 0.00 25 1013.0
20260505053001 64 240 10.4 14.8 0.00 0.00 0.00 25 1012.6
20260505051501 65 257 9.6 13.9 0.00 0.00 0.00 25 1012.6
20260505041501 66 241 7.8 12.2 0.00 0.00 0.00 23 1012.5
20260505040000 66 252 7.0 8.7 0.00 0.00 0.00 23 1012.5
20260505033001 67 257 8.7 12.2 0.00 0.00 0.00 23 1012.3
20260505031500 67 255 8.7 12.2 0.00 0.00 0.00 22 1012.0
20260505030000 68 239 7.8 12.2 0.00 0.00 0.00 21 1011.9
20260505024500 68 281 9.6 14.8 0.00 0.00 0.00 21 1011.8
20260505023000 69 288 10.4 17.4 0.00 0.00 0.00 20 1011.4
20260505021500 69 271 10.4 17.4 0.00 0.00 0.00 20 1011.3
20260505020001 69 281 10.4 18.2 0.00 0.00 0.00 20 1011.1
20260505014501 70 279 8.7 17.4 0.00 0.00 0.00 20 1011.0
20260505013000 70 271 8.7 15.6 0.00 0.00 0.00 20 1010.7
20260505010002 70 290 7.8 14.8 0.00 0.00 0.00 18 1010.7